Hourly Weather Roundup
Issued by NWS Central Illinois

Home | Current Version | Previous Version | Graphics & Text | Print | Product List | Glossary On
Versions: 1 2 3 4 5 6 7 8 9 10 11 12 13 14 15 16 17 18 19 20 21 22 23 24 25 26 27 28 29 30 31 32 33 34 35 36 37 38 39 40 41 42 43 44 45 46 47 48 49 50
000
NZUS43 KILX 261910
HWRILX

AREA WEATHER ROUNDUP
NATIONAL WEATHER SERVICE, LINCOLN IL
200 PM CDT THU MAR 26 2015


CITY           SKY/WX    TMP DP  RH WIND       PRES   REMARKS
BLOOMINGTON    PTSUNNY   44  30  58 NW15      30.00S
CHAMPAIGN      CLOUDY    45  32  60 NW14      29.98S
DECATUR        CLOUDY    44  29  55 NW17      30.01S
EFFINGHAM      CLOUDY    43  31  63 W14       30.03F
FLORA          CLOUDY    42  33  72 NW16      30.02F WCI  34
GALESBURG      SUNNY     44  24  45 NW10G24   30.03F
JACKSONVILLE   PTSUNNY   48  30  50 NW15G22   30.04F
LACON          MOSUNNY   44  27  50 NW13G22   30.00F
LAWRENCEVILLE  CLOUDY    44  35  70 NW16      29.99S
LITCHFIELD     CLOUDY    42  31  66 NW14      30.04F WCI  34
$$


CITY           SKY/WX    TMP DP  RH WIND       PRES   REMARKS
LINCOLN        CLOUDY    47  29  50 NW8G18    30.02S
MACOMB         SUNNY     46  27  46 NW14G28   30.07F
MATTOON        CLOUDY    43  33  68 NW16G24   29.99F
MT CARMEL AP   CLOUDY    45  34  65 NW15      29.99F
OLNEY-NOBLE AP CLOUDY    41  34  75 NW13      30.01F WCI  34
PARIS          PTSUNNY   42  35  74 NW13      30.00R
PEORIA         MOSUNNY   48  25  40 NW10G24   30.01F
PONTIAC        PTSUNNY   45  31  58 NW15      29.98F
RANTOUL        CLOUDY    46  32  58 NW16      29.97R
ROBINSON       CLOUDY    42  35  74 NW12      30.01F
SPRINGFIELD    CLOUDY    46  28  49 W16       30.04S
TAYLORVILLE    CLOUDY    43  32  65 NW13      30.03F
$$

...REGIONAL REPORTS...


CITY           SKY/WX    TMP DP  RH WIND       PRES   REMARKS
CHICAGO O`HARE PTSUNNY   41  24  51 NW13      29.95F WCI  34
KANKAKEE       PTSUNNY   43  31  62 W16       29.96F
MOLINE         SUNNY     45  23  42 N21G30    30.02F
MOUNT VERNON   CLOUDY    41  30  65 NW5       30.05R
PITTSFIELD     MOSUNNY   47  28  48 NW14      30.06F
QUINCY         SUNNY     46  25  43 NW17G25   30.06F
ROCKFORD       CLOUDY    38  22  52 NW13      30.01S WCI  30
$$


CITY           SKY/WX    TMP DP  RH WIND       PRES   REMARKS
BURLINGTON     SUNNY     46  23  40 NW17G28   30.05F
CEDAR RAPIDS   SUNNY     44  23  43 NW23G30   30.05F
DES MOINES     PTSUNNY   45  22  40 N18G24    30.12F
KIRKSVILLE     SUNNY     47  22  37 NW9       30.10F
OTTUMWA        MOSUNNY   47  24  40 NW20G31   30.08F
ST LOUIS       CLOUDY    47  31  53 NW13G26   30.07F
$$


CITY           SKY/WX    TMP DP  RH WIND       PRES   REMARKS
TERRE HAUTE    PTSUNNY   43  34  70 NW10G21   29.97S
EVANSVILLE     CLOUDY    43  36  76 NW14      30.01R
INDIANAPOLIS   CLOUDY    43  33  68 NW15      29.91F
LAFAYETTE      PTSUNNY   43  30  60 NW12      29.94F
MADISON        CLOUDY    35  19  52 NW13      29.99R WCI  26
MILWAUKEE      CLOUDY    37  19  48 NW12      29.95F WCI  29
$$





USA.gov is the U.S. government's official web portal to all federal, state and local government web resources and services.